NOAA 16 DEB, 41374

Orbit data source: Space-Track

NOAA 16 DEB, 41374 is space debris in SSO originally from a launch on Thu, 21 Sep 2000 UTC launched from the Air Force Western Test Range (AFWTR). Debris objects in space refer to the collection of defunct objects orbiting the Earth. Examples of debris include non-operational satellites, rocket bodies, and fragments generated from explosions, collisions, or faulty payload assembly.

Loading next visibility...
Identifier
41374, 2000-055JT
Orbit
SSO
Country
Flag of USUS
Related business
Manufacturer
Unknown
Mission
Spacecraft
Bus & Motor
Unknown
Mass
Unknown
Launch date (UTC)
2000-09-21 (26 years ago)
Launch vehicle
Unknown
Launch site
Air Force Western Test Range (AFWTR)
Object type
Payload
Rocket body
Debris
Shape & HBR
Unknown shape, 0.1 m
Radar Cross Section
Medium (>0.1 m² and <1 m²)

Expand to show TLE details & history
Last TLE update: 2 days ago

TLE from 2 days ago
0 NOAA 16 DEB
1 41374U 00055JT  26171.41879101  .00002059  00000-0  98278-3 0  9990
2 41374  98.7117 220.6633 0034537 154.6156 205.6727 14.19978125535926
Epoch: 2026-06-20T10:03Z
TLE epoch observation values (Epoch: 2026-06-20T10:03:03.543Z)
Latitude
0.00006°
Longitude
161.26484°
Altitude
850.785 km
Speed
7.416 km/s
True Right ascension
14h 42m 39s
True Declination
0° 00' 00"
Sunlit
Object was in full shadow at epoch
Visualization orbit readout
Latitude
Unknown
Longitude
Unknown
Altitude
Unknown
Speed
Unknown
Apparent Right ascension
Unknown
Apparent Declination
Unknown
Sunlit
N/A
Visualization observer readout
Local Sidereal Time
23:18:37
Azimuth
Unknown
Elevation
Unknown
Doppler factor
Unknown
Orbital elements
Apogee altitude
847.455 km
Perigee altitude
797.716 km
Semi-major axis
7,200.722 km
Eccentricity
0.00345
Inclination
98.7117°
RAAN
220.6633°
Arg. of periapsis
154.6156°
True anomaly
205.50191°
Mean anomaly
205.6727°
Eccentric anomaly
205.58724°
Mean motion
3.55205 °/min
Orbital period
101.35 mins
BSTAR
0.00098278
Loading maneuver chart data...
Computing Atmospheric mass density...
Loading historical data...
Loading historical data...
Loading historical data...
Loading historical data...
Loading historical data...
Loading historical data...
Loading historical data...

Documentation

Showing up to 5 results
|